DB0WGS-1 Weather Reports


Display with metric or nautical units.
time (UTC)temp
F
wind
direction
speed
MPH
gust
MPH
rain 1hr
in
rain 24hr
in
rain mn
in
humidity
%
barometer
mb
20260502123343 -40 3.0 11.0 0.00 0.00 0.00 14 1021.2
20260502122137 -40 2.0 8.0 0.00 0.00 0.00 14 1021.4
20260502120932 -40 3.0 12.0 0.00 0.00 0.00 14 1021.6
20260502115725 -40 2.0 6.0 0.00 0.00 0.00 14 1021.7
20260502114519 -40 3.0 12.0 0.00 0.00 0.00 14 1021.8
20260502113312 -40 2.0 6.0 0.00 0.00 0.00 14 1021.9
20260502112107 -40 2.0 6.0 0.00 0.00 0.00 14 1022.1
20260502110900 -40 4.0 9.0 0.00 0.00 0.00 14 1022.1
20260502105655 -40 2.0 10.0 0.00 0.00 0.00 14 1022.2
20260502104448 -40 5.0 11.0 0.00 0.00 0.00 14 1022.3
20260502103242 -40 5.0 12.0 0.00 0.00 0.00 14 1022.5
20260502102037 -40 2.0 9.0 0.00 0.00 0.00 14 1022.7
20260502100831 -40 3.0 10.0 0.00 0.00 0.00 14 1022.8
20260502090800 -40 3.0 10.0 0.00 0.00 0.00 14 1023.2
20260502070659 -40 3.0 10.0 0.00 0.00 0.00 14 1023.6
20260502065453 -40 2.0 10.0 0.00 0.00 0.00 14 1023.6
20260502064247 -40 2.0 8.0 0.00 0.00 0.00 14 1023.7
20260502063040 -40 2.0 6.0 0.00 0.00 0.00 14 1023.8
20260502061835 -40 3.0 6.0 0.00 0.00 0.00 14 1023.7
20260502060628 -40 3.0 6.0 0.00 0.00 0.00 14 1023.7
20260502055422 -40 4.0 8.0 0.00 0.00 0.00 14 1023.7
20260502054216 -40 4.0 8.0 0.00 0.00 0.00 14 1023.7
20260502053010 -40 4.0 6.0 0.00 0.00 0.00 14 1023.8
20260502051805 -40 3.0 5.0 0.00 0.00 0.00 14 1023.8
20260502050558 -40 2.0 5.0 0.00 0.00 0.00 14 1023.8
20260502045352 -40 1.0 4.0 0.00 0.00 0.00 14 1023.8
20260502044146 -40 2.0 5.0 0.00 0.00 0.00 14 1023.7
20260502042940 -40 3.0 5.0 0.00 0.00 0.00 14 1023.7
20260502041734 -40 3.0 4.0 0.00 0.00 0.00 14 1023.8
20260502040528 -40 2.0 4.0 0.00 0.00 0.00 14 1023.7
20260502035322 -40 2.0 4.0 0.00 0.00 0.00 14 1023.7
20260502034115 -40 2.0 4.0 0.00 0.00 0.00 14 1023.7
20260502032909 -40 2.0 4.0 0.00 0.00 0.00 14 1023.7
20260502031703 -40 3.0 4.0 0.00 0.00 0.00 14 1023.7
20260502030531 -40 2.0 4.0 0.00 0.00 0.00 14 1023.8
20260502030458 -40 2.0 4.0 0.00 0.00 0.00 14 1023.8
20260502025250 -40 2.0 4.0 0.00 0.00 0.00 14 1023.8
20260502024045 -40 3.0 4.0 0.00 0.00 0.00 14 1023.9
20260502022839 -40 3.0 5.0 0.00 0.00 0.00 14 1024.0
20260502021633 -40 2.0 5.0 0.00 0.00 0.00 14 1023.9
20260502020426 -40 2.0 4.0 0.00 0.00 0.00 14 1024.0
20260502015220 -40 3.0 4.0 0.00 0.00 0.00 14 1024.1
20260502014015 -40 2.0 5.0 0.00 0.00 0.00 14 1024.1
20260502012809 -40 2.0 4.0 0.00 0.00 0.00 14 1024.2
20260502011602 -40 2.0 5.0 0.00 0.00 0.00 14 1024.3
20260502010356 -40 3.0 5.0 0.00 0.00 0.00 14 1024.3
20260502005150 -40 3.0 5.0 0.00 0.00 0.00 14 1024.4
20260502003945 -40 2.0 4.0 0.00 0.00 0.00 14 1024.6
20260502002738 -40 2.0 5.0 0.00 0.00 0.00 14 1024.7
20260502001532 -40 3.0 5.0 0.00 0.00 0.00 14 1024.7
20260502000327 -40 3.0 6.0 0.00 0.00 0.00 14 1024.8
20260501235120 -40 2.0 5.0 0.00 0.00 0.00 14 1024.9
20260501233914 -40 2.0 5.0 0.00 0.00 0.00 14 1025.1
20260501232707 -40 2.0 4.0 0.00 0.00 0.00 14 1025.2
20260501231502 -40 2.0 5.0 0.00 0.00 0.00 14 1025.3
20260501230255 -40 2.0 3.0 0.00 0.00 0.00 14 1025.3
20260501225051 -40 2.0 3.0 0.00 0.00 0.00 14 1025.3
20260501223843 -40 2.0 4.0 0.00 0.00 0.00 14 1025.4
20260501222638 -40 2.0 4.0 0.00 0.00 0.00 14 1025.4
20260501221432 -40 2.0 5.0 0.00 0.00 0.00 14 1025.4
20260501220225 -40 2.0 4.0 0.00 0.00 0.00 14 1025.4
20260501215019 -40 3.0 5.0 0.00 0.00 0.00 14 1025.4
20260501213813 -40 2.0 5.0 0.00 0.00 0.00 14 1025.4
20260501212607 -40 2.0 3.0 0.00 0.00 0.00 14 1025.4
20260501211433 -40 2.0 4.0 0.00 0.00 0.00 14 1025.5
20260501211402 -40 2.0 4.0 0.00 0.00 0.00 14 1025.5
20260501210154 -40 1.0 3.0 0.00 0.00 0.00 14 1025.5
20260501204949 -40 2.0 4.0 0.00 0.00 0.00 14 1025.5
20260501203744 -40 2.0 3.0 0.00 0.00 0.00 14 1025.5
20260501202538 -40 2.0 3.0 0.00 0.00 0.00 14 1025.6
20260501201330 -40 2.0 4.0 0.00 0.00 0.00 14 1025.5
20260501200125 -40 2.0 4.0 0.00 0.00 0.00 14 1025.5
20260501194918 -40 2.0 4.0 0.00 0.00 0.00 14 1025.4
20260501193712 -40 3.0 8.0 0.00 0.00 0.00 14 1025.4
20260501192506 -40 3.0 6.0 0.00 0.00 0.00 14 1025.4
20260501191300 -40 3.0 8.0 0.00 0.00 0.00 14 1025.4
20260501190054 -40 2.0 5.0 0.00 0.00 0.00 14 1025.4
20260501184848 -40 2.0 5.0 0.00 0.00 0.00 14 1025.4
20260501183641 -40 3.0 6.0 0.00 0.00 0.00 14 1025.3
20260501182435 -40 2.0 5.0 0.00 0.00 0.00 14 1025.2
20260501181230 -40 2.0 6.0 0.00 0.00 0.00 14 1025.1
20260501180121 -40 2.0 4.0 0.00 0.00 0.00 14 1025.1
20260501180022 -40 2.0 4.0 0.00 0.00 0.00 14 1025.1
20260501174817 -40 2.0 5.0 0.00 0.00 0.00 14 1025.0
20260501173611 -40 3.0 6.0 0.00 0.00 0.00 14 1025.0
20260501172405 -40 2.0 6.0 0.00 0.00 0.00 14 1024.9
20260501171329 -40 3.0 6.0 0.00 0.00 0.00 14 1024.9
20260501171158 -40 3.0 6.0 0.00 0.00 0.00 14 1024.9
20260501165953 -40 3.0 9.0 0.00 0.00 0.00 14 1024.9
20260501164747 -40 3.0 6.0 0.00 0.00 0.00 14 1024.9
20260501163541 -40 3.0 10.0 0.00 0.00 0.00 14 1025.0
20260501162334 -40 3.0 9.0 0.00 0.00 0.00 14 1025.1
20260501161131 -40 4.0 12.0 0.00 0.00 0.00 14 1025.1
20260501155923 -40 3.0 9.0 0.00 0.00 0.00 14 1025.0
20260501154717 -40 3.0 11.0 0.00 0.00 0.00 14 1025.1
20260501153510 -40 4.0 10.0 0.00 0.00 0.00 14 1025.1
20260501152306 -40 3.0 12.0 0.00 0.00 0.00 14 1025.3
20260501151058 -40 3.0 9.0 0.00 0.00 0.00 14 1025.4
20260501145852 -40 4.0 12.0 0.00 0.00 0.00 14 1025.4